Time,TemperatureF,DewpointF,PressureIn,WindDirection,WindDirectionDegrees,WindSpeedMPH,WindSpeedGustMPH,Humidity,HourlyPrecipIn,Conditions,Clouds,dailyrainin,SoftwareType,DateUTC
2013-03-12 00:00:00,48.7,47.6,29.84,NNW,344,2.0,2.0,96,0.01,,SKC,1.38,VWS V14.01,2013-03-12 04:00:00,
2013-03-12 00:05:00,48.6,47.5,29.84,NW,315,0.0,2.0,96,0.01,,SKC,0.00,VWS V14.01,2013-03-12 04:05:00,
2013-03-12 00:10:00,48.5,47.4,29.84,NW,326,2.0,2.0,96,0.01,,SKC,0.00,VWS V14.01,2013-03-12 04:10:00,
2013-03-12 00:15:00,48.3,47.2,29.85,NNW,335,2.0,3.0,96,0.01,,SKC,0.00,VWS V14.01,2013-03-12 04:15:00,
2013-03-12 00:20:00,48.2,47.1,29.85,West,269,1.0,5.0,96,0.01,,SKC,0.00,VWS V14.01,2013-03-12 04:20:00,
2013-03-12 00:25:00,48.0,46.9,29.85,NNW,338,0.0,4.0,96,0.00,,SKC,0.00,VWS V14.01,2013-03-12 04:25:00,
2013-03-12 00:30:00,47.8,46.7,29.84,WNW,293,0.0,4.0,96,0.01,,SKC,0.01,VWS V14.01,2013-03-12 04:30:00,
2013-03-12 00:35:00,47.4,46.0,29.85,North,355,6.0,8.0,95,0.01,,SKC,0.01,VWS V14.01,2013-03-12 04:35:00,
2013-03-12 00:40:00,47.1,45.7,29.84,WNW,298,0.0,6.0,95,0.01,,SKC,0.01,VWS V14.01,2013-03-12 04:40:00,
2013-03-12 00:45:00,46.9,45.5,29.85,WNW,295,2.0,3.0,95,0.01,,SKC,0.01,VWS V14.01,2013-03-12 04:45:00,
2013-03-12 00:50:00,46.7,45.3,29.84,West,271,1.0,3.0,95,0.01,,SKC,0.01,VWS V14.01,2013-03-12 04:50:00,
2013-03-12 00:55:00,46.5,45.2,29.84,WNW,293,0.0,3.0,95,0.01,,SKC,0.01,VWS V14.01,2013-03-12 04:55:00,
2013-03-12 01:00:00,46.5,45.2,29.84,WSW,253,0.0,2.0,95,0.01,,SKC,0.01,VWS V14.01,2013-03-12 05:00:00,
2013-03-12 01:05:00,46.4,45.0,29.84,West,262,1.0,3.0,95,0.01,,SKC,0.01,VWS V14.01,2013-03-12 05:05:00,
2013-03-12 01:10:00,46.3,45.0,29.85,WNW,291,0.0,3.0,95,0.01,,SKC,0.01,VWS V14.01,2013-03-12 05:10:00,
2013-03-12 01:15:00,46.3,45.0,29.85,NNW,330,0.0,2.0,95,0.01,,SKC,0.01,VWS V14.01,2013-03-12 05:15:00,
2013-03-12 01:20:00,46.2,44.8,29.84,East,87,4.0,5.0,95,0.01,,SKC,0.01,VWS V14.01,2013-03-12 05:20:00,
2013-03-12 01:25:00,46.1,44.8,29.84,NW,323,1.0,5.0,95,0.01,,SKC,0.01,VWS V14.01,2013-03-12 05:25:00,
2013-03-12 01:30:00,46.1,44.8,29.84,West,263,1.0,6.0,95,0.00,,SKC,0.01,VWS V14.01,2013-03-12 05:30:00,
2013-03-12 01:35:00,46.0,44.9,29.84,North,351,2.0,5.0,96,0.00,,SKC,0.01,VWS V14.01,2013-03-12 05:35:00,
2013-03-12 01:40:00,45.8,44.7,29.84,South,177,1.0,4.0,96,0.00,,SKC,0.01,VWS V14.01,2013-03-12 05:40:00,
2013-03-12 01:45:00,45.7,44.6,29.84,NW,326,2.0,5.0,96,0.00,,SKC,0.01,VWS V14.01,2013-03-12 05:45:00,
2013-03-12 01:50:00,45.5,44.2,29.84,WNW,293,4.0,5.0,95,0.00,,SKC,0.01,VWS V14.01,2013-03-12 05:50:00,
2013-03-12 01:55:00,45.3,44.0,29.84,NW,311,1.0,4.0,95,0.00,,SKC,0.01,VWS V14.01,2013-03-12 05:55:00,
2013-03-12 02:00:00,45.2,44.1,29.84,NW,304,2.0,5.0,96,0.00,,SKC,0.01,VWS V14.01,2013-03-12 06:00:00,
2013-03-12 02:05:00,45.1,44.0,29.84,WNW,285,0.0,3.0,96,0.00,,SKC,0.01,VWS V14.01,2013-03-12 06:05:00,
2013-03-12 02:10:00,45.0,43.9,29.84,WSW,239,0.0,4.0,96,0.00,,SKC,0.01,VWS V14.01,2013-03-12 06:10:00,
2013-03-12 02:15:00,45.0,43.9,29.84,West,273,0.0,3.0,96,0.00,,SKC,0.01,VWS V14.01,2013-03-12 06:15:00,
2013-03-12 02:20:00,44.9,43.8,29.85,WSW,257,0.0,5.0,96,0.00,,SKC,0.01,VWS V14.01,2013-03-12 06:20:00,
2013-03-12 02:25:00,44.8,43.7,29.85,WNW,294,3.0,4.0,96,0.00,,SKC,0.01,VWS V14.01,2013-03-12 06:25:00,
2013-03-12 02:30:00,44.7,43.6,29.85,NW,326,0.0,5.0,96,0.00,,SKC,0.01,VWS V14.01,2013-03-12 06:30:00,
2013-03-12 02:35:00,44.7,43.6,29.85,WNW,293,0.0,2.0,96,0.00,,SKC,0.01,VWS V14.01,2013-03-12 06:35:00,
2013-03-12 02:40:00,44.6,43.5,29.85,SW,214,2.0,4.0,96,0.00,,SKC,0.01,VWS V14.01,2013-03-12 06:40:00,
2013-03-12 02:45:00,44.4,43.1,29.85,NNE,26,3.0,5.0,95,0.00,,SKC,0.01,VWS V14.01,2013-03-12 06:45:00,
2013-03-12 02:50:00,44.3,42.7,29.85,NW,310,1.0,5.0,94,0.00,,SKC,0.01,VWS V14.01,2013-03-12 06:50:00,
2013-03-12 02:55:00,44.1,42.5,29.86,NNW,328,4.0,4.0,94,0.00,,SKC,0.01,VWS V14.01,2013-03-12 06:55:00,
2013-03-12 03:00:00,43.8,41.9,29.85,NNW,335,2.0,8.0,93,0.00,,SKC,0.01,VWS V14.01,2013-03-12 07:00:00,
2013-03-12 03:05:00,43.4,41.2,29.86,West,276,2.0,10.0,92,0.00,,SKC,0.01,VWS V14.01,2013-03-12 07:05:00,
2013-03-12 03:10:00,43.3,41.1,29.86,West,278,1.0,3.0,92,0.00,,SKC,0.01,VWS V14.01,2013-03-12 07:10:00,
2013-03-12 03:15:00,43.0,40.8,29.86,North,4,1.0,6.0,92,0.00,,SKC,0.01,VWS V14.01,2013-03-12 07:15:00,
2013-03-12 03:20:00,42.7,40.5,29.86,NW,326,4.0,5.0,92,0.00,,SKC,0.01,VWS V14.01,2013-03-12 07:20:00,
2013-03-12 03:25:00,42.6,40.4,29.86,West,276,0.0,5.0,92,0.00,,SKC,0.01,VWS V14.01,2013-03-12 07:25:00,
2013-03-12 03:30:00,42.4,40.2,29.86,ENE,76,1.0,4.0,92,0.00,,SKC,0.01,VWS V14.01,2013-03-12 07:30:00,
2013-03-12 03:35:00,42.1,40.0,29.86,East,79,2.0,3.0,92,0.00,,SKC,0.01,VWS V14.01,2013-03-12 07:35:00,
2013-03-12 03:40:00,41.9,39.8,29.86,NW,304,0.0,3.0,92,0.00,,SKC,0.01,VWS V14.01,2013-03-12 07:40:00,
2013-03-12 03:45:00,41.6,39.5,29.86,SW,231,2.0,5.0,92,0.00,,SKC,0.01,VWS V14.01,2013-03-12 07:45:00,
2013-03-12 03:50:00,41.3,39.2,29.86,WNW,293,0.0,8.0,92,0.00,,SKC,0.01,VWS V14.01,2013-03-12 07:50:00,
2013-03-12 03:55:00,41.1,39.0,29.86,WNW,285,1.0,4.0,92,0.00,,SKC,0.01,VWS V14.01,2013-03-12 07:55:00,
2013-03-12 04:00:00,40.8,38.7,29.86,NNE,18,3.0,3.0,92,0.00,,SKC,0.01,VWS V14.01,2013-03-12 08:00:00,
2013-03-12 04:05:00,40.6,38.5,29.86,NNW,339,0.0,5.0,92,0.00,,SKC,0.01,VWS V14.01,2013-03-12 08:05:00,
2013-03-12 04:10:00,40.4,38.3,29.86,NNW,330,2.0,3.0,92,0.00,,SKC,0.01,VWS V14.01,2013-03-12 08:10:00,
2013-03-12 04:15:00,40.4,38.3,29.86,West,262,0.0,5.0,92,0.00,,SKC,0.01,VWS V14.01,2013-03-12 08:15:00,
2013-03-12 04:20:00,40.4,38.5,29.86,NNE,31,0.0,2.0,93,0.00,,SKC,0.01,VWS V14.01,2013-03-12 08:20:00,
2013-03-12 04:25:00,40.4,38.5,29.86,NNE,18,2.0,3.0,93,0.00,,SKC,0.01,VWS V14.01,2013-03-12 08:25:00,
2013-03-12 04:30:00,40.3,38.2,29.86,WNW,282,1.0,3.0,92,0.00,,SKC,0.01,VWS V14.01,2013-03-12 08:30:00,
2013-03-12 04:35:00,40.2,38.1,29.86,SW,233,2.0,5.0,92,0.00,,SKC,0.01,VWS V14.01,2013-03-12 08:35:00,
2013-03-12 04:40:00,40.1,38.0,29.86,NNW,347,1.0,4.0,92,0.00,,SKC,0.01,VWS V14.01,2013-03-12 08:40:00,
2013-03-12 04:45:00,40.1,38.0,29.86,NNE,22,2.0,3.0,92,0.00,,SKC,0.01,VWS V14.01,2013-03-12 08:45:00,
2013-03-12 04:50:00,40.1,38.0,29.86,WNW,293,0.0,6.0,92,0.00,,SKC,0.01,VWS V14.01,2013-03-12 08:50:00,
2013-03-12 04:55:00,40.1,38.0,29.86,North,11,2.0,6.0,92,0.00,,SKC,0.01,VWS V14.01,2013-03-12 08:55:00,
2013-03-12 05:00:00,40.0,37.9,29.86,WSW,253,1.0,2.0,92,0.00,,SKC,0.01,VWS V14.01,2013-03-12 09:00:00,
2013-03-12 05:05:00,39.9,37.8,29.87,NNW,340,4.0,8.0,92,0.00,,SKC,0.01,VWS V14.01,2013-03-12 09:05:00,
2013-03-12 05:10:00,39.9,37.8,29.87,NNE,22,2.0,2.0,92,0.00,,SKC,0.01,VWS V14.01,2013-03-12 09:10:00,
2013-03-12 05:15:00,39.8,37.7,29.87,West,264,2.0,4.0,92,0.00,,SKC,0.01,VWS V14.01,2013-03-12 09:15:00,
2013-03-12 05:20:00,39.7,37.3,29.87,WNW,293,0.0,10.0,91,0.00,,SKC,0.01,VWS V14.01,2013-03-12 09:20:00,
2013-03-12 05:25:00,39.7,37.3,29.87,West,269,0.0,3.0,91,0.00,,SKC,0.01,VWS V14.01,2013-03-12 09:25:00,
2013-03-12 05:30:00,39.6,37.2,29.87,WSW,250,2.0,6.0,91,0.00,,SKC,0.01,VWS V14.01,2013-03-12 09:30:00,
2013-03-12 05:35:00,39.6,37.2,29.87,West,271,0.0,5.0,91,0.00,,SKC,0.01,VWS V14.01,2013-03-12 09:35:00,
2013-03-12 05:40:00,39.5,37.1,29.88,NNW,330,2.0,6.0,91,0.00,,SKC,0.01,VWS V14.01,2013-03-12 09:40:00,
2013-03-12 05:45:00,39.4,37.0,29.88,WNW,297,2.0,4.0,91,0.00,,SKC,0.01,VWS V14.01,2013-03-12 09:45:00,
2013-03-12 05:50:00,39.3,36.6,29.88,NE,39,4.0,4.0,90,0.00,,SKC,0.01,VWS V14.01,2013-03-12 09:50:00,
2013-03-12 05:55:00,39.1,36.4,29.87,NNW,340,2.0,4.0,90,0.00,,SKC,0.01,VWS V14.01,2013-03-12 09:55:00,
2013-03-12 06:00:00,39.0,36.3,29.88,NW,326,1.0,6.0,90,0.00,,SKC,0.01,VWS V14.01,2013-03-12 10:00:00,
2013-03-12 06:05:00,38.9,36.2,29.88,NNW,332,0.0,2.0,90,0.00,,SKC,0.01,VWS V14.01,2013-03-12 10:05:00,
2013-03-12 06:10:00,38.7,36.0,29.88,NNW,333,4.0,5.0,90,0.00,,SKC,0.01,VWS V14.01,2013-03-12 10:10:00,
2013-03-12 06:15:00,38.6,35.9,29.89,NNW,332,3.0,3.0,90,0.00,,SKC,0.01,VWS V14.01,2013-03-12 10:15:00,
2013-03-12 06:20:00,38.5,35.8,29.89,NNW,332,0.0,3.0,90,0.00,,SKC,0.01,VWS V14.01,2013-03-12 10:20:00,
2013-03-12 06:25:00,38.4,35.7,29.89,North,7,0.0,4.0,90,0.00,,SKC,0.01,VWS V14.01,2013-03-12 10:25:00,
2013-03-12 06:30:00,38.3,35.9,29.89,NW,316,1.0,3.0,91,0.00,,SKC,0.01,VWS V14.01,2013-03-12 10:30:00,
2013-03-12 06:35:00,38.3,35.9,29.90,SSE,148,0.0,3.0,91,0.00,,SKC,0.01,VWS V14.01,2013-03-12 10:35:00,
2013-03-12 06:40:00,38.3,35.9,29.90,WNW,282,0.0,2.0,91,0.00,,SKC,0.01,VWS V14.01,2013-03-12 10:40:00,
2013-03-12 06:45:00,38.2,35.8,29.91,NW,306,0.0,2.0,91,0.00,,SKC,0.01,VWS V14.01,2013-03-12 10:45:00,
2013-03-12 06:50:00,38.1,35.4,29.91,WSW,249,0.0,4.0,90,0.00,,SKC,0.01,VWS V14.01,2013-03-12 10:50:00,
2013-03-12 06:55:00,38.1,35.4,29.92,NNW,342,0.0,4.0,90,0.00,,SKC,0.01,VWS V14.01,2013-03-12 10:55:00,
2013-03-12 07:00:00,38.1,35.4,29.92,WSW,252,0.0,4.0,90,0.00,,SKC,0.01,VWS V14.01,2013-03-12 11:00:00,
2013-03-12 07:05:00,38.1,35.2,29.92,NNE,27,2.0,8.0,89,0.00,,OVC017,0.01,VWS V14.01,2013-03-12 11:05:00,
2013-03-12 07:10:00,38.1,35.2,29.93,WSW,239,0.0,6.0,89,0.00,,OVC017,0.01,VWS V14.01,2013-03-12 11:10:00,
2013-03-12 07:15:00,38.2,35.2,29.93,SSW,208,0.0,7.0,89,0.00,,OVC017,0.01,VWS V14.01,2013-03-12 11:15:00,
2013-03-12 07:20:00,38.2,35.0,29.93,SW,230,1.0,6.0,88,0.00,,OVC017,0.01,VWS V14.01,2013-03-12 11:20:00,
2013-03-12 07:25:00,38.3,35.1,29.93,SSW,198,0.0,6.0,88,0.00,,OVC017,0.01,VWS V14.01,2013-03-12 11:25:00,
2013-03-12 07:30:00,38.3,35.1,29.94,NNW,327,1.0,5.0,88,0.00,,OVC017,0.01,VWS V14.01,2013-03-12 11:30:00,
2013-03-12 07:35:00,38.3,34.8,29.93,NNW,333,4.0,13.0,87,0.00,,OVC017,0.01,VWS V14.01,2013-03-12 11:35:00,
2013-03-12 07:40:00,38.2,34.4,29.93,SSE,166,2.0,7.0,86,0.00,,OVC017,0.01,VWS V14.01,2013-03-12 11:40:00,
2013-03-12 07:45:00,38.1,34.3,29.94,WNW,299,1.0,8.0,86,0.00,,OVC017,0.01,VWS V14.01,2013-03-12 11:45:00,
2013-03-12 07:50:00,37.9,34.4,29.94,NW,310,3.0,5.0,87,0.00,,OVC017,0.01,VWS V14.01,2013-03-12 11:50:00,
2013-03-12 07:55:00,37.8,33.7,29.94,NNE,31,2.0,6.0,85,0.00,,OVC017,0.01,VWS V14.01,2013-03-12 11:55:00,
2013-03-12 08:00:00,37.7,33.6,29.94,West,263,1.0,11.0,85,0.00,,OVC017,0.01,VWS V14.01,2013-03-12 12:00:00,
2013-03-12 08:05:00,37.6,33.5,29.94,North,359,2.0,10.0,85,0.00,,BKN020,0.01,VWS V14.01,2013-03-12 12:05:00,
2013-03-12 08:10:00,37.5,33.4,29.94,NNW,329,1.0,7.0,85,0.00,,BKN020,0.01,VWS V14.01,2013-03-12 12:10:00,
2013-03-12 08:15:00,37.4,33.6,29.94,NNW,330,1.0,6.0,86,0.00,,BKN020,0.01,VWS V14.01,2013-03-12 12:15:00,
2013-03-12 08:20:00,37.3,33.5,29.94,North,349,1.0,6.0,86,0.00,,BKN020,0.01,VWS V14.01,2013-03-12 12:20:00,
2013-03-12 08:25:00,37.4,33.3,29.94,NNW,342,1.0,6.0,85,0.00,,BKN020,0.01,VWS V14.01,2013-03-12 12:25:00,
2013-03-12 08:30:00,37.5,33.7,29.94,WNW,294,3.0,5.0,86,0.00,,BKN020,0.01,VWS V14.01,2013-03-12 12:30:00,
2013-03-12 08:35:00,37.8,33.7,29.95,NE,49,5.0,5.0,85,0.00,,BKN020,0.01,VWS V14.01,2013-03-12 12:35:00,
2013-03-12 08:40:00,38.1,34.0,29.95,NW,319,0.0,2.0,85,0.00,,BKN020,0.01,VWS V14.01,2013-03-12 12:40:00,
2013-03-12 08:45:00,38.3,33.9,29.94,North,6,3.0,3.0,84,0.00,,BKN020,0.01,VWS V14.01,2013-03-12 12:45:00,
2013-03-12 08:50:00,38.5,33.8,29.94,NW,326,2.0,7.0,83,0.00,,BKN020,0.01,VWS V14.01,2013-03-12 12:50:00,
2013-03-12 08:55:00,38.9,34.5,29.95,North,5,2.0,3.0,84,0.00,,BKN020,0.01,VWS V14.01,2013-03-12 12:55:00,
2013-03-12 09:00:00,39.1,34.1,29.94,NW,314,0.0,5.0,82,0.00,,BKN020,0.01,VWS V14.01,2013-03-12 13:00:00,
2013-03-12 09:05:00,39.2,34.2,29.94,West,263,2.0,6.0,82,0.00,,FEW020,0.01,VWS V14.01,2013-03-12 13:05:00,
2013-03-12 09:10:00,39.2,34.2,29.94,SSW,194,1.0,5.0,82,0.00,,FEW020,0.01,VWS V14.01,2013-03-12 13:10:00,
2013-03-12 09:15:00,39.6,34.9,29.95,West,276,4.0,5.0,83,0.00,,FEW020,0.01,VWS V14.01,2013-03-12 13:15:00,
2013-03-12 09:20:00,39.7,34.7,29.95,WNW,285,0.0,7.0,82,0.00,,FEW020,0.01,VWS V14.01,2013-03-12 13:20:00,
2013-03-12 09:25:00,40.0,35.0,29.95,West,264,0.0,4.0,82,0.00,,FEW020,0.01,VWS V14.01,2013-03-12 13:25:00,
2013-03-12 09:30:00,40.3,34.9,29.95,SW,217,1.0,4.0,81,0.00,,FEW020,0.01,VWS V14.01,2013-03-12 13:30:00,
2013-03-12 09:35:00,40.4,34.7,29.95,West,263,3.0,5.0,80,0.00,,FEW020,0.01,VWS V14.01,2013-03-12 13:35:00,
2013-03-12 09:40:00,40.6,35.2,29.95,NW,306,2.0,5.0,81,0.00,,FEW020,0.01,VWS V14.01,2013-03-12 13:40:00,
2013-03-12 09:45:00,41.0,35.6,29.95,NW,312,1.0,4.0,81,0.00,,FEW020,0.01,VWS V14.01,2013-03-12 13:45:00,
2013-03-12 09:50:00,41.3,35.6,29.95,NW,304,3.0,3.0,80,0.00,,FEW020,0.01,VWS V14.01,2013-03-12 13:50:00,
2013-03-12 09:55:00,41.5,35.8,29.96,West,263,1.0,4.0,80,0.00,,FEW020,0.01,VWS V14.01,2013-03-12 13:55:00,
2013-03-12 10:00:00,41.5,35.5,29.96,NW,308,3.0,6.0,79,0.00,,FEW020,0.01,VWS V14.01,2013-03-12 14:00:00,
2013-03-12 10:05:00,41.8,35.5,29.96,WNW,291,1.0,8.0,78,0.00,,FEW020,0.01,VWS V14.01,2013-03-12 14:05:00,
2013-03-12 10:10:00,41.9,35.5,29.97,North,3,4.0,6.0,78,0.00,,FEW020,0.01,VWS V14.01,2013-03-12 14:10:00,
2013-03-12 10:15:00,42.1,35.1,29.97,NNW,343,3.0,7.0,76,0.00,,FEW020,0.01,VWS V14.01,2013-03-12 14:15:00,
2013-03-12 10:20:00,42.5,35.8,29.97,West,281,0.0,6.0,77,0.00,,FEW020,0.01,VWS V14.01,2013-03-12 14:20:00,
2013-03-12 10:25:00,42.7,35.7,29.98,NNE,27,3.0,6.0,76,0.00,,FEW020,0.01,VWS V14.01,2013-03-12 14:25:00,
2013-03-12 10:30:00,43.1,36.1,29.98,WNW,295,5.0,5.0,76,0.00,,FEW020,0.01,VWS V14.01,2013-03-12 14:30:00,
2013-03-12 10:35:00,43.3,35.2,29.98,NW,315,1.0,6.0,73,0.00,,FEW020,0.01,VWS V14.01,2013-03-12 14:35:00,
2013-03-12 10:40:00,43.3,36.3,29.98,WNW,297,1.0,8.0,76,0.00,,FEW020,0.01,VWS V14.01,2013-03-12 14:40:00,
2013-03-12 10:45:00,43.6,36.2,29.98,North,353,2.0,4.0,75,0.00,,FEW020,0.01,VWS V14.01,2013-03-12 14:45:00,
2013-03-12 10:50:00,43.8,36.1,29.99,NW,323,3.0,8.0,74,0.00,,FEW020,0.01,VWS V14.01,2013-03-12 14:50:00,
2013-03-12 10:55:00,43.9,36.2,29.99,WSW,253,3.0,6.0,74,0.00,,FEW020,0.01,VWS V14.01,2013-03-12 14:55:00,
2013-03-12 11:00:00,44.3,36.5,29.99,WNW,298,1.0,9.0,74,0.00,,FEW020,0.01,VWS V14.01,2013-03-12 15:00:00,
2013-03-12 11:05:00,44.4,36.0,29.99,WSW,246,4.0,4.0,72,0.00,,FEW020,0.01,VWS V14.01,2013-03-12 15:05:00,
2013-03-12 11:10:00,44.7,35.9,29.99,NNW,344,1.0,6.0,71,0.00,,FEW020,0.01,VWS V14.01,2013-03-12 15:10:00,
2013-03-12 11:16:00,45.2,37.1,29.99,NW,315,2.0,5.0,73,0.00,,FEW020,0.01,VWS V14.01,2013-03-12 15:16:00,
2013-03-12 11:20:00,45.0,35.8,29.99,WSW,245,1.0,11.0,70,0.00,,FEW020,0.01,VWS V14.01,2013-03-12 15:20:00,
2013-03-12 11:25:00,45.7,36.8,29.99,NW,314,4.0,5.0,71,0.00,,FEW020,0.01,VWS V14.01,2013-03-12 15:25:00,
2013-03-12 11:30:00,45.9,36.7,30.00,NNW,327,4.0,7.0,70,0.00,,FEW020,0.01,VWS V14.01,2013-03-12 15:30:00,
2013-03-12 11:35:00,45.7,36.5,30.00,WNW,291,1.0,9.0,70,0.00,,FEW020,0.01,VWS V14.01,2013-03-12 15:35:00,
2013-03-12 11:40:00,46.3,36.7,30.00,WSW,258,5.0,8.0,69,0.00,,FEW020,0.01,VWS V14.01,2013-03-12 15:40:00,
2013-03-12 11:45:00,46.5,37.3,30.00,North,6,3.0,6.0,70,0.00,,FEW020,0.01,VWS V14.01,2013-03-12 15:45:00,
2013-03-12 11:50:00,46.7,36.3,30.00,NW,312,1.0,8.0,67,0.00,,FEW020,0.01,VWS V14.01,2013-03-12 15:50:00,
2013-03-12 11:55:00,47.0,37.4,30.00,WSW,252,3.0,6.0,69,0.00,,FEW020,0.01,VWS V14.01,2013-03-12 15:55:00,
2013-03-12 12:01:00,47.7,37.3,30.01,WSW,254,2.0,4.0,67,0.00,,FEW020,0.01,VWS V14.01,2013-03-12 16:01:00,
2013-03-12 12:06:00,47.7,36.1,30.01,North,356,2.0,6.0,64,0.00,,FEW020,0.01,VWS V14.01,2013-03-12 16:06:00,
2013-03-12 12:11:00,47.8,36.2,30.01,NNW,342,4.0,7.0,64,0.00,,FEW020,0.01,VWS V14.01,2013-03-12 16:11:00,
2013-03-12 12:16:00,47.8,35.8,30.01,NW,319,3.0,8.0,63,0.00,,FEW020,0.01,VWS V14.01,2013-03-12 16:16:00,
2013-03-12 12:21:00,48.0,36.4,30.01,NW,324,2.0,8.0,64,0.00,,FEW020,0.01,VWS V14.01,2013-03-12 16:21:00,
2013-03-12 12:26:00,48.1,36.1,30.01,NNW,347,2.0,12.0,63,0.00,,FEW020,0.01,VWS V14.01,2013-03-12 16:26:00,
2013-03-12 12:31:00,48.8,36.4,30.01,NW,318,4.0,6.0,62,0.00,,FEW020,0.01,VWS V14.01,2013-03-12 16:31:00,
2013-03-12 12:36:00,49.3,37.2,30.01,NNW,330,1.0,5.0,63,0.00,,FEW020,0.01,VWS V14.01,2013-03-12 16:36:00,
2013-03-12 12:41:00,49.7,36.4,30.01,NW,326,1.0,5.0,60,0.00,,FEW020,0.01,VWS V14.01,2013-03-12 16:41:00,
2013-03-12 12:46:00,49.7,36.4,30.01,ESE,102,1.0,11.0,60,0.00,,FEW020,0.01,VWS V14.01,2013-03-12 16:46:00,
2013-03-12 12:51:00,50.6,37.2,30.00,ENE,76,1.0,5.0,60,0.00,,FEW020,0.01,VWS V14.01,2013-03-12 16:51:00,
2013-03-12 12:56:00,51.3,38.7,30.01,NW,311,2.0,6.0,62,0.00,,FEW020,0.01,VWS V14.01,2013-03-12 16:56:00,
2013-03-12 13:01:00,51.3,37.0,30.00,NNW,328,6.0,8.0,58,0.00,,FEW020,0.01,VWS V14.01,2013-03-12 17:01:00,
2013-03-12 13:06:00,51.3,36.6,30.01,West,267,2.0,6.0,57,0.00,,SKC,0.01,VWS V14.01,2013-03-12 17:06:00,
2013-03-12 13:11:00,51.5,37.2,30.01,West,262,3.0,4.0,58,0.00,,SKC,0.01,VWS V14.01,2013-03-12 17:11:00,
2013-03-12 13:16:00,51.8,36.2,30.01,NW,304,2.0,6.0,55,0.00,,SKC,0.01,VWS V14.01,2013-03-12 17:16:00,
2013-03-12 13:21:00,52.2,36.1,30.01,NW,319,6.0,7.0,54,0.00,,SKC,0.01,VWS V14.01,2013-03-12 17:21:00,
2013-03-12 13:26:00,52.2,36.5,30.01,West,277,1.0,4.0,55,0.00,,SKC,0.01,VWS V14.01,2013-03-12 17:26:00,
2013-03-12 13:31:00,52.8,37.1,30.01,NNE,13,4.0,8.0,55,0.00,,SKC,0.01,VWS V14.01,2013-03-12 17:31:00,
2013-03-12 13:36:00,53.0,35.4,30.01,West,281,1.0,5.0,51,0.00,,SKC,0.01,VWS V14.01,2013-03-12 17:36:00,
2013-03-12 13:41:00,52.9,34.8,30.02,WSW,248,3.0,8.0,50,0.00,,SKC,0.01,VWS V14.01,2013-03-12 17:41:00,
2013-03-12 13:46:00,52.9,35.8,30.02,West,263,3.0,9.0,52,0.00,,SKC,0.01,VWS V14.01,2013-03-12 17:46:00,
2013-03-12 13:51:00,53.3,34.7,30.02,NNW,328,2.0,9.0,49,0.00,,SKC,0.01,VWS V14.01,2013-03-12 17:51:00,
2013-03-12 13:56:00,53.7,35.0,30.01,NW,323,4.0,7.0,49,0.00,,SKC,0.01,VWS V14.01,2013-03-12 17:56:00,
2013-03-12 14:01:00,54.0,35.3,30.02,WSW,245,6.0,8.0,49,0.00,,SKC,0.01,VWS V14.01,2013-03-12 18:01:00,
2013-03-12 14:06:00,54.0,34.2,30.01,SW,214,2.0,11.0,47,0.00,,SKC,0.01,VWS V14.01,2013-03-12 18:06:00,
2013-03-12 14:12:00,53.9,34.2,30.02,NW,325,4.0,12.0,47,0.00,,SKC,0.01,VWS V14.01,2013-03-12 18:12:00,
2013-03-12 14:17:00,53.6,34.4,30.01,West,270,2.0,4.0,48,0.00,,SKC,0.01,VWS V14.01,2013-03-12 18:17:00,
2013-03-12 14:22:00,53.8,34.6,30.01,WNW,296,2.0,3.0,48,0.00,,SKC,0.01,VWS V14.01,2013-03-12 18:22:00,
2013-03-12 14:27:00,54.3,32.9,30.01,NW,311,2.0,4.0,44,0.00,,SKC,0.01,VWS V14.01,2013-03-12 18:27:00,
2013-03-12 14:32:00,54.5,33.6,30.01,WNW,295,4.0,8.0,45,0.00,,SKC,0.01,VWS V14.01,2013-03-12 18:32:00,
2013-03-12 14:37:00,54.6,34.2,30.01,SW,233,3.0,4.0,46,0.00,,SKC,0.01,VWS V14.01,2013-03-12 18:37:00,
2013-03-12 14:42:00,55.1,34.2,30.01,WNW,283,3.0,7.0,45,0.00,,SKC,0.01,VWS V14.01,2013-03-12 18:42:00,
2013-03-12 14:47:00,55.4,34.4,30.01,NNW,330,4.0,4.0,45,0.00,,SKC,0.01,VWS V14.01,2013-03-12 18:47:00,
2013-03-12 14:52:00,54.6,34.2,30.01,WSW,240,3.0,3.0,46,0.00,,SKC,0.01,VWS V14.01,2013-03-12 18:52:00,
2013-03-12 14:57:00,54.9,34.5,30.01,NE,34,6.0,6.0,46,0.00,,SKC,0.01,VWS V14.01,2013-03-12 18:57:00,
2013-03-12 15:02:00,54.7,33.2,30.01,West,274,3.0,3.0,44,0.00,,SKC,0.01,VWS V14.01,2013-03-12 19:02:00,
2013-03-12 15:07:00,55.2,34.2,30.01,West,279,2.0,2.0,45,0.00,,SKC,0.01,VWS V14.01,2013-03-12 19:07:00,
2013-03-12 15:12:00,55.6,34.0,30.00,NW,305,4.0,5.0,44,0.00,,SKC,0.01,VWS V14.01,2013-03-12 19:12:00,
2013-03-12 15:17:00,55.3,32.0,30.00,North,350,9.0,9.0,41,0.00,,SKC,0.01,VWS V14.01,2013-03-12 19:17:00,
2013-03-12 15:22:00,54.5,31.9,30.00,NNE,27,2.0,3.0,42,0.00,,SKC,0.01,VWS V14.01,2013-03-12 19:22:00,
2013-03-12 15:27:00,54.7,32.7,30.00,WSW,257,2.0,3.0,43,0.00,,SKC,0.01,VWS V14.01,2013-03-12 19:27:00,
2013-03-12 15:32:00,55.4,33.3,30.00,WNW,300,5.0,7.0,43,0.00,,SKC,0.01,VWS V14.01,2013-03-12 19:32:00,
2013-03-12 15:38:00,55.5,32.2,30.00,North,7,3.0,9.0,41,0.00,,SKC,0.01,VWS V14.01,2013-03-12 19:38:00,
2013-03-12 15:43:00,55.8,33.7,30.00,West,260,9.0,9.0,43,0.00,,SKC,0.01,VWS V14.01,2013-03-12 19:43:00,
2013-03-12 15:48:00,56.0,35.0,30.00,NW,317,1.0,6.0,45,0.00,,SKC,0.01,VWS V14.01,2013-03-12 19:48:00,
2013-03-12 15:53:00,56.1,33.9,30.00,WNW,296,3.0,10.0,43,0.00,,SKC,0.01,VWS V14.01,2013-03-12 19:53:00,
2013-03-12 15:58:00,56.1,33.9,29.99,NW,304,2.0,5.0,43,0.00,,SKC,0.01,VWS V14.01,2013-03-12 19:58:00,
2013-03-12 16:03:00,56.3,32.9,29.99,NNE,18,3.0,4.0,41,0.00,,SKC,0.01,VWS V14.01,2013-03-12 20:03:00,
2013-03-12 16:08:00,57.0,34.2,29.99,West,269,2.0,8.0,42,0.00,,SKC,0.01,VWS V14.01,2013-03-12 20:08:00,
2013-03-12 16:13:00,56.9,34.1,30.00,WNW,283,1.0,6.0,42,0.00,,SKC,0.01,VWS V14.01,2013-03-12 20:13:00,
2013-03-12 16:18:00,56.8,34.0,30.00,NW,311,1.0,8.0,42,0.00,,SKC,0.01,VWS V14.01,2013-03-12 20:18:00,
2013-03-12 16:23:00,56.8,34.0,29.99,WNW,290,3.0,4.0,42,0.00,,SKC,0.01,VWS V14.01,2013-03-12 20:23:00,
2013-03-12 16:28:00,57.1,34.8,29.99,NNE,15,1.0,4.0,43,0.00,,SKC,0.01,VWS V14.01,2013-03-12 20:28:00,
2013-03-12 16:33:00,57.5,34.0,30.00,WNW,297,2.0,6.0,41,0.00,,SKC,0.01,VWS V14.01,2013-03-12 20:33:00,
2013-03-12 16:38:00,56.8,33.4,30.00,North,4,1.0,6.0,41,0.00,,SKC,0.01,VWS V14.01,2013-03-12 20:38:00,
2013-03-12 16:43:00,56.7,33.3,30.00,WNW,297,8.0,10.0,41,0.00,,SKC,0.01,VWS V14.01,2013-03-12 20:43:00,
2013-03-12 16:48:00,57.0,34.8,30.00,North,356,4.0,7.0,43,0.00,,SKC,0.01,VWS V14.01,2013-03-12 20:48:00,
2013-03-12 16:53:00,57.3,33.8,30.00,WNW,290,2.0,6.0,41,0.00,,SKC,0.01,VWS V14.01,2013-03-12 20:53:00,
2013-03-12 16:58:00,57.8,34.3,30.00,SE,125,1.0,4.0,41,0.00,,SKC,0.01,VWS V14.01,2013-03-12 20:58:00,
2013-03-12 17:03:00,58.3,33.5,30.00,NNE,15,8.0,9.0,39,0.00,,SKC,0.01,VWS V14.01,2013-03-12 21:03:00,
2013-03-12 17:08:00,57.2,31.8,30.00,NW,323,4.0,6.0,38,0.00,,SKC,0.01,VWS V14.01,2013-03-12 21:08:00,
2013-03-12 17:13:00,56.9,33.5,30.00,NNW,343,3.0,4.0,41,0.00,,SKC,0.01,VWS V14.01,2013-03-12 21:13:00,
2013-03-12 17:18:00,57.1,33.6,30.00,NNE,25,1.0,4.0,41,0.00,,SKC,0.01,VWS V14.01,2013-03-12 21:18:00,
2013-03-12 17:23:00,57.2,33.1,30.01,NNE,29,1.0,4.0,40,0.00,,SKC,0.01,VWS V14.01,2013-03-12 21:23:00,
2013-03-12 17:28:00,57.4,33.3,30.01,NNW,340,5.0,10.0,40,0.00,,SKC,0.01,VWS V14.01,2013-03-12 21:28:00,
2013-03-12 17:33:00,56.7,32.7,30.01,SSW,193,2.0,7.0,40,0.00,,SKC,0.01,VWS V14.01,2013-03-12 21:33:00,
2013-03-12 17:38:00,56.4,33.0,30.01,North,359,1.0,5.0,41,0.00,,SKC,0.01,VWS V14.01,2013-03-12 21:38:00,
2013-03-12 17:43:00,56.1,33.3,30.01,North,8,7.0,8.0,42,0.00,,SKC,0.01,VWS V14.01,2013-03-12 21:43:00,
2013-03-12 17:48:00,55.8,32.5,30.01,NNW,329,3.0,8.0,41,0.00,,SKC,0.01,VWS V14.01,2013-03-12 21:48:00,
2013-03-12 17:53:00,55.9,33.2,30.00,NNE,18,5.0,5.0,42,0.00,,SKC,0.01,VWS V14.01,2013-03-12 21:53:00,
2013-03-12 17:58:00,55.8,33.7,30.01,NW,323,2.0,5.0,43,0.00,,SKC,0.01,VWS V14.01,2013-03-12 21:58:00,
2013-03-12 18:03:00,55.9,33.8,30.01,NNE,18,5.0,5.0,43,0.00,,SKC,0.01,VWS V14.01,2013-03-12 22:03:00,
2013-03-12 18:08:00,55.9,33.8,30.01,North,360,2.0,4.0,43,0.00,,SKC,0.01,VWS V14.01,2013-03-12 22:08:00,
2013-03-12 18:13:00,56.1,33.9,30.01,North,353,6.0,6.0,43,0.00,,SKC,0.01,VWS V14.01,2013-03-12 22:13:00,
2013-03-12 18:18:00,56.1,33.9,30.01,North,354,3.0,5.0,43,0.00,,SKC,0.01,VWS V14.01,2013-03-12 22:18:00,
2013-03-12 18:23:00,56.2,34.0,30.01,NNW,339,5.0,6.0,43,0.00,,SKC,0.01,VWS V14.01,2013-03-12 22:23:00,
2013-03-12 18:28:00,55.8,34.2,30.01,NE,34,0.0,2.0,44,0.00,,SKC,0.01,VWS V14.01,2013-03-12 22:28:00,
2013-03-12 18:33:00,55.7,34.7,30.02,NW,321,3.0,4.0,45,0.00,,SKC,0.01,VWS V14.01,2013-03-12 22:33:00,
2013-03-12 18:38:00,55.5,34.0,30.01,North,6,4.0,4.0,44,0.00,,SKC,0.01,VWS V14.01,2013-03-12 22:38:00,
2013-03-12 18:43:00,55.2,33.7,30.02,North,349,2.0,3.0,44,0.00,,SKC,0.01,VWS V14.01,2013-03-12 22:43:00,
2013-03-12 18:48:00,55.2,33.7,30.02,NW,316,2.0,6.0,44,0.00,,SKC,0.01,VWS V14.01,2013-03-12 22:48:00,
2013-03-12 18:53:00,55.3,33.8,30.03,NW,326,3.0,5.0,44,0.00,,SKC,0.01,VWS V14.01,2013-03-12 22:53:00,
2013-03-12 18:58:00,55.1,33.0,30.02,NW,318,2.0,6.0,43,0.00,,SKC,0.01,VWS V14.01,2013-03-12 22:58:00,
2013-03-12 19:03:00,54.9,33.4,30.03,NW,316,2.0,5.0,44,0.00,,SKC,0.01,VWS V14.01,2013-03-12 23:03:00,
2013-03-12 19:08:00,54.9,33.4,30.03,NNW,346,3.0,5.0,44,0.00,,SKC,0.01,VWS V14.01,2013-03-12 23:08:00,
2013-03-12 19:13:00,54.7,33.2,30.03,NNW,344,2.0,4.0,44,0.00,,SKC,0.01,VWS V14.01,2013-03-12 23:13:00,
2013-03-12 19:18:00,54.4,34.1,30.03,NNW,345,0.0,2.0,46,0.00,,SKC,0.01,VWS V14.01,2013-03-12 23:18:00,
2013-03-12 19:23:00,54.1,33.8,30.03,NNW,334,0.0,2.0,46,0.00,,SKC,0.01,VWS V14.01,2013-03-12 23:23:00,
2013-03-12 19:28:00,53.7,34.0,30.03,NNW,338,2.0,5.0,47,0.00,,SKC,0.01,VWS V14.01,2013-03-12 23:28:00,
2013-03-12 19:33:00,53.5,33.8,30.04,North,349,1.0,4.0,47,0.00,,SKC,0.01,VWS V14.01,2013-03-12 23:33:00,
2013-03-12 19:38:00,53.2,34.0,30.04,NNW,346,1.0,3.0,48,0.00,,SKC,0.01,VWS V14.01,2013-03-12 23:38:00,
2013-03-12 19:43:00,52.9,33.8,30.04,North,349,1.0,2.0,48,0.00,,SKC,0.01,VWS V14.01,2013-03-12 23:43:00,
2013-03-12 19:48:00,52.7,33.6,30.04,NNW,342,1.0,4.0,48,0.00,,SKC,0.01,VWS V14.01,2013-03-12 23:48:00,
2013-03-12 19:53:00,52.5,33.4,30.04,North,349,0.0,2.0,48,0.00,,SKC,0.01,VWS V14.01,2013-03-12 23:53:00,
2013-03-12 19:58:00,52.2,33.6,30.05,North,360,1.0,2.0,49,0.00,,SKC,0.01,VWS V14.01,2013-03-12 23:58:00,
2013-03-12 20:03:00,51.9,33.9,30.04,NNW,347,0.0,1.0,50,0.00,,SKC,0.01,VWS V14.01,2013-03-13 00:03:00,
2013-03-12 20:08:00,51.6,33.6,30.05,North,349,0.0,1.0,50,0.00,,SKC,0.01,VWS V14.01,2013-03-13 00:08:00,
2013-03-12 20:13:00,51.4,33.4,30.05,NW,325,0.0,2.0,50,0.00,,SKC,0.01,VWS V14.01,2013-03-13 00:13:00,
2013-03-12 20:18:00,51.3,33.3,30.05,NW,325,0.0,0.0,50,0.00,,SKC,0.01,VWS V14.01,2013-03-13 00:18:00,
2013-03-12 20:23:00,51.0,33.5,30.05,NW,325,0.0,0.0,51,0.00,,SKC,0.01,VWS V14.01,2013-03-13 00:23:00,
2013-03-12 20:28:00,50.8,33.3,30.05,NW,325,0.0,0.0,51,0.00,,SKC,0.01,VWS V14.01,2013-03-13 00:28:00,
2013-03-12 20:33:00,50.4,33.5,30.05,NW,325,0.0,0.0,52,0.00,,SKC,0.01,VWS V14.01,2013-03-13 00:33:00,
2013-03-12 20:38:00,50.1,33.7,30.06,NW,325,0.0,0.0,53,0.00,,SKC,0.01,VWS V14.01,2013-03-13 00:38:00,
2013-03-12 20:43:00,49.9,33.9,30.06,NW,324,0.0,0.0,54,0.00,,SKC,0.01,VWS V14.01,2013-03-13 00:43:00,
2013-03-12 20:48:00,49.5,33.6,30.05,NW,325,0.0,0.0,54,0.00,,SKC,0.01,VWS V14.01,2013-03-13 00:48:00,
2013-03-12 20:53:00,49.2,34.2,30.06,NW,324,0.0,0.0,56,0.00,,SKC,0.01,VWS V14.01,2013-03-13 00:53:00,
2013-03-12 20:58:00,48.9,34.3,30.06,NW,325,0.0,0.0,57,0.00,,SKC,0.01,VWS V14.01,2013-03-13 00:58:00,
2013-03-12 21:03:00,48.6,34.1,30.06,NW,325,0.0,0.0,57,0.00,,SKC,0.01,VWS V14.01,2013-03-13 01:03:00,
2013-03-12 21:08:00,48.3,33.8,30.06,NW,325,0.0,0.0,57,0.00,,SKC,0.01,VWS V14.01,2013-03-13 01:08:00,
2013-03-12 21:13:00,48.1,34.0,30.07,NW,325,0.0,0.0,58,0.00,,SKC,0.01,VWS V14.01,2013-03-13 01:13:00,
2013-03-12 21:18:00,48.0,33.9,30.07,NW,325,0.0,0.0,58,0.00,,SKC,0.01,VWS V14.01,2013-03-13 01:18:00,
2013-03-12 21:23:00,48.0,33.9,30.07,NW,325,0.0,0.0,58,0.00,,SKC,0.01,VWS V14.01,2013-03-13 01:23:00,
2013-03-12 21:28:00,48.0,33.9,30.07,NW,325,0.0,0.0,58,0.00,,SKC,0.01,VWS V14.01,2013-03-13 01:28:00,
2013-03-12 21:33:00,47.9,33.8,30.07,NW,325,0.0,0.0,58,0.00,,SKC,0.01,VWS V14.01,2013-03-13 01:33:00,
2013-03-12 21:38:00,47.7,33.7,30.07,NW,325,0.0,0.0,58,0.00,,SKC,0.01,VWS V14.01,2013-03-13 01:38:00,
2013-03-12 21:43:00,47.7,33.7,30.08,NW,324,0.0,0.0,58,0.00,,SKC,0.01,VWS V14.01,2013-03-13 01:43:00,
2013-03-12 21:48:00,47.7,33.2,30.08,NNW,338,0.0,1.0,57,0.00,,SKC,0.01,VWS V14.01,2013-03-13 01:48:00,
2013-03-12 21:53:00,47.7,32.8,30.08,NNW,335,0.0,0.0,56,0.00,,SKC,0.01,VWS V14.01,2013-03-13 01:53:00,
2013-03-12 21:58:00,47.6,32.7,30.08,NNW,336,0.0,0.0,56,0.00,,SKC,0.01,VWS V14.01,2013-03-13 01:58:00,
2013-03-12 22:03:00,47.5,33.0,30.08,NNW,335,0.0,0.0,57,0.00,,SKC,0.01,VWS V14.01,2013-03-13 02:03:00,
2013-03-12 22:08:00,47.4,33.0,30.08,NNW,335,0.0,0.0,57,0.00,,SKC,0.01,VWS V14.01,2013-03-13 02:08:00,
2013-03-12 22:13:00,47.2,32.8,30.08,NNW,335,1.0,1.0,57,0.00,,SKC,0.01,VWS V14.01,2013-03-13 02:13:00,
2013-03-12 22:18:00,47.2,32.8,30.09,NNW,332,0.0,1.0,57,0.00,,SKC,0.01,VWS V14.01,2013-03-13 02:18:00,
2013-03-12 22:24:00,47.2,32.8,30.09,NW,316,0.0,1.0,57,0.00,,SKC,0.01,VWS V14.01,2013-03-13 02:24:00,
2013-03-12 22:28:00,47.1,32.7,30.09,NW,323,0.0,1.0,57,0.00,,SKC,0.01,VWS V14.01,2013-03-13 02:28:00,
2013-03-12 22:33:00,47.1,32.2,30.09,NW,316,1.0,1.0,56,0.00,,SKC,0.01,VWS V14.01,2013-03-13 02:33:00,
2013-03-12 22:38:00,46.9,32.5,30.09,North,359,0.0,1.0,57,0.00,,SKC,0.01,VWS V14.01,2013-03-13 02:38:00,
2013-03-12 22:43:00,46.9,32.0,30.10,NNW,342,1.0,2.0,56,0.00,,SKC,0.01,VWS V14.01,2013-03-13 02:43:00,
2013-03-12 22:49:00,46.9,32.0,30.10,NNW,344,2.0,2.0,56,0.00,,SKC,0.01,VWS V14.01,2013-03-13 02:49:00,
2013-03-12 22:54:00,47.0,32.1,30.10,NW,321,3.0,3.0,56,0.00,,SKC,0.01,VWS V14.01,2013-03-13 02:54:00,
2013-03-12 22:59:00,47.2,31.9,30.10,NNE,15,1.0,3.0,55,0.00,,SKC,0.01,VWS V14.01,2013-03-13 02:59:00,
2013-03-12 23:04:00,47.2,31.9,30.10,NNW,336,1.0,2.0,55,0.00,,SKC,0.01,VWS V14.01,2013-03-13 03:04:00,
2013-03-12 23:09:00,47.1,31.8,30.10,NNW,335,0.0,3.0,55,0.00,,SKC,0.01,VWS V14.01,2013-03-13 03:09:00,
2013-03-12 23:14:00,47.0,32.1,30.10,NW,312,0.0,3.0,56,0.00,,SKC,0.01,VWS V14.01,2013-03-13 03:14:00,
2013-03-12 23:19:00,46.8,32.4,30.11,NNW,333,0.0,3.0,57,0.00,,SKC,0.01,VWS V14.01,2013-03-13 03:19:00,
2013-03-12 23:24:00,46.6,31.8,30.11,NW,326,0.0,1.0,56,0.00,,SKC,0.01,VWS V14.01,2013-03-13 03:24:00,
2013-03-12 23:29:00,46.5,31.7,30.11,NNW,335,0.0,2.0,56,0.00,,SKC,0.01,VWS V14.01,2013-03-13 03:29:00,
2013-03-12 23:34:00,46.2,31.8,30.11,NW,326,0.0,0.0,57,0.00,,SKC,0.01,VWS V14.01,2013-03-13 03:34:00,
2013-03-12 23:39:00,45.9,32.0,30.11,NW,319,0.0,0.0,58,0.00,,SKC,0.01,VWS V14.01,2013-03-13 03:39:00,
2013-03-12 23:44:00,45.6,31.7,30.11,NW,319,0.0,0.0,58,0.00,,SKC,0.01,VWS V14.01,2013-03-13 03:44:00,
2013-03-12 23:49:00,45.3,31.8,30.11,West,271,0.0,0.0,59,0.00,,SKC,0.01,VWS V14.01,2013-03-13 03:49:00,
2013-03-12 23:54:00,45.0,32.0,30.11,West,271,0.0,0.0,60,0.00,,SKC,0.01,VWS V14.01,2013-03-13 03:54:00,
2013-03-12 23:59:00,44.8,32.2,30.11,NNW,335,0.0,0.0,61,0.00,,SKC,0.01,VWS V14.01,2013-03-13 03:59:00,